When you browse on this site, cookies collect data to enhance your experience and personalize the content and advertising you see.
Visit our Privacy Policy to learn more. By continuing to use the site, you agree to this use of cookies and data.
  • In Hungary
  • List of Countries
  • For 7 days
  • Water Temperature
  • Satellite Maps
  • Weather Map
  • News
  • Weather Widgets
  • user-avatar
    Login

    Hourly Weather Sidorovo

    Today, 18 November, Sunday

    Time Temperature Precipitation Wind Pressure Humidity
    00:00 -2°C° 0.2 mm 4 mps 756 mmHg 88%
    01:00 -2°C° 0.3 mm 4 mps 756 mmHg 89%
    02:00 -2°C° 0.3 mm 4 mps 755 mmHg 89%
    03:00 -1°C° 0 mm 3 mps 754 mmHg 90%
    04:00 -1°C° 0.2 mm 3 mps 754 mmHg 90%
    05:00 -2°C° 0.2 mm 3 mps 754 mmHg 90%
    06:00 -2°C° 0.2 mm 3 mps 754 mmHg 90%
    07:00 -1°C° 0.1 mm 3 mps 754 mmHg 90%
    08:00 -1°C° 0.1 mm 3 mps 754 mmHg 90%
    09:00 -1°C° 0 mm 3 mps 754 mmHg 90%
    10:00 -1°C° 0 mm 3 mps 755 mmHg 89%
    11:00 0°C° 0 mm 3 mps 755 mmHg 89%
    12:00 0°C° 0 mm 3 mps 755 mmHg 89%
    13:00 0°C° 0 mm 3 mps 755 mmHg 90%
    14:00 +1°C° 0 mm 2 mps 756 mmHg 91%
    15:00 +1°C° 0 mm 2 mps 756 mmHg 92%
    16:00 +1°C° 0 mm 2 mps 756 mmHg 93%
    17:00 -1°C° 0 mm 2 mps 757 mmHg 94%
    18:00 -1°C° 0 mm 2 mps 757 mmHg 95%
    19:00 -1°C° 0 mm 2 mps 757 mmHg 95%
    20:00 -1°C° 0 mm 2 mps 757 mmHg 96%
    21:00 -1°C° 0 mm 2 mps 757 mmHg 96%
    22:00 -1°C° 0 mm 2 mps 758 mmHg 96%
    23:00 -1°C° 0 mm 2 mps 758 mmHg 97%

    Tomorrow, 19 November, Monday

    Time Temperature Precipitation Wind Pressure Humidity
    00:00 -1°C° 0 mm 2 mps 758 mmHg 97%
    01:00 -1°C° 0.1 mm 2 mps 758 mmHg 97%
    02:00 -1°C° 0.1 mm 2 mps 759 mmHg 97%
    03:00 -1°C° 0.1 mm 2 mps 759 mmHg 97%
    04:00 -1°C° 0.1 mm 2 mps 759 mmHg 97%
    05:00 -1°C° 0.1 mm 2 mps 759 mmHg 97%
    06:00 -1°C° 0.1 mm 2 mps 759 mmHg 97%
    07:00 -1°C° 0.1 mm 2 mps 760 mmHg 96%
    08:00 -1°C° 0.1 mm 2 mps 760 mmHg 96%
    09:00 +1°C° 0.1 mm 2 mps 760 mmHg 96%
    10:00 +1°C° 0.1 mm 2 mps 761 mmHg 95%
    11:00 +1°C° 0.1 mm 2 mps 761 mmHg 94%
    12:00 +2°C° 0.1 mm 2 mps 761 mmHg 93%
    13:00 +1°C° 0.1 mm 2 mps 761 mmHg 93%
    14:00 +1°C° 0.1 mm 2 mps 762 mmHg 93%
    15:00 0°C° 0.1 mm 3 mps 762 mmHg 93%
    16:00 0°C° 0.1 mm 3 mps 762 mmHg 93%
    17:00 -1°C° 0.1 mm 3 mps 762 mmHg 94%
    18:00 -1°C° 0.1 mm 3 mps 762 mmHg 94%
    19:00 -1°C° 0.1 mm 3 mps 762 mmHg 93%
    20:00 -1°C° 0.1 mm 3 mps 762 mmHg 92%
    21:00 -1°C° 0.1 mm 3 mps 763 mmHg 91%
    22:00 -2°C° 0.1 mm 3 mps 763 mmHg 90%
    23:00 -2°C° 0.1 mm 3 mps 763 mmHg 89%

    Day after tomorrow, 20 November, Tuesday

    Time Temperature Precipitation Wind Pressure Humidity
    00:00 -2°C° 0.1 mm 3 mps 763 mmHg 87%
    01:00 -2°C° 0 mm 3 mps 763 mmHg 88%
    02:00 -3°C° 0 mm 2 mps 763 mmHg 89%
    03:00 -3°C° 0 mm 2 mps 763 mmHg 90%
    04:00 -3°C° 0 mm 2 mps 762 mmHg 92%
    05:00 -4°C° 0 mm 2 mps 762 mmHg 93%
    06:00 -4°C° 0 mm 2 mps 762 mmHg 94%
    07:00 -4°C° 0 mm 2 mps 762 mmHg 94%
    08:00 -4°C° 0 mm 2 mps 762 mmHg 93%
    09:00 -4°C° 0 mm 2 mps 762 mmHg 92%
    10:00 -4°C° 0 mm 2 mps 761 mmHg 88%
    11:00 -3°C° 0 mm 2 mps 761 mmHg 84%
    12:00 -3°C° 0 mm 2 mps 761 mmHg 80%
    13:00 -3°C° 0 mm 2 mps 760 mmHg 80%
    14:00 -4°C° 0 mm 3 mps 760 mmHg 80%
    15:00 -4°C° 0 mm 3 mps 760 mmHg 80%
    16:00 -4°C° 0 mm 3 mps 759 mmHg 82%
    17:00 -4°C° 0 mm 3 mps 759 mmHg 83%
    18:00 -5°C° 0 mm 3 mps 758 mmHg 85%
    19:00 -5°C° 0 mm 3 mps 758 mmHg 85%
    20:00 -5°C° 0 mm 3 mps 757 mmHg 85%
    21:00 -5°C° 0 mm 3 mps 757 mmHg 85%
    22:00 -5°C° 0 mm 4 mps 756 mmHg 84%
    23:00 -5°C° 0 mm 4 mps 756 mmHg 83%

    21 November, Wednesday

    Time Temperature Precipitation Wind Pressure Humidity
    00:00 -5°C° 0 mm 4 mps 756 mmHg 82%
    01:00 -5°C° 0 mm 4 mps 755 mmHg 81%
    02:00 -5°C° 0 mm 4 mps 755 mmHg 80%
    03:00 -5°C° 0 mm 4 mps 755 mmHg 79%
    04:00 -5°C° 0 mm 4 mps 755 mmHg 80%
    05:00 -4°C° 0 mm 4 mps 755 mmHg 82%
    06:00 -4°C° 0 mm 4 mps 755 mmHg 83%
    07:00 -4°C° 0.1 mm 4 mps 755 mmHg 84%
    08:00 -4°C° 0.1 mm 4 mps 755 mmHg 85%
    09:00 -3°C° 0.1 mm 4 mps 755 mmHg 86%
    10:00 -3°C° 0 mm 4 mps 755 mmHg 84%
    11:00 -3°C° 0 mm 4 mps 755 mmHg 81%
    12:00 -2°C° 0 mm 4 mps 755 mmHg 79%
    13:00 -2°C° 0 mm 4 mps 755 mmHg 77%
    14:00 -3°C° 0 mm 4 mps 755 mmHg 75%
    15:00 -3°C° 0 mm 4 mps 755 mmHg 74%
    16:00 -4°C° 0 mm 4 mps 755 mmHg 74%
    17:00 -4°C° 0 mm 4 mps 755 mmHg 74%
    18:00 -5°C° 0 mm 4 mps 755 mmHg 74%
    19:00 -5°C° 0 mm 3 mps 755 mmHg 75%
    20:00 -5°C° 0 mm 3 mps 755 mmHg 75%
    21:00 -6°C° 0 mm 3 mps 755 mmHg 76%
    22:00 -6°C° 0 mm 3 mps 754 mmHg 79%
    23:00 -6°C° 0 mm 3 mps 754 mmHg 82%

    22 November, Thursday

    Time Temperature Precipitation Wind Pressure Humidity
    00:00 -7°C° 0 mm 3 mps 754 mmHg 85%
    01:00 -7°C° 0 mm 4 mps 753 mmHg 84%
    02:00 -7°C° 0 mm 4 mps 752 mmHg 84%
    03:00 -7°C° 0 mm 4 mps 751 mmHg 83%
    04:00 -7°C° 0 mm 5 mps 751 mmHg 84%
    05:00 -7°C° 0 mm 5 mps 750 mmHg 84%
    06:00 -8°C° 0 mm 6 mps 749 mmHg 84%
    07:00 -6°C° 0.1 mm 6 mps 748 mmHg 83%
    08:00 -6°C° 0.1 mm 6 mps 747 mmHg 81%
    09:00 -6°C° 0.1 mm 6 mps 746 mmHg 80%
    10:00 -6°C° 0.2 mm 7 mps 746 mmHg 79%
    11:00 -4°C° 0.2 mm 7 mps 746 mmHg 77%
    12:00 -4°C° 0.2 mm 8 mps 745 mmHg 76%
    13:00 -4°C° 0.1 mm 7 mps 746 mmHg 71%
    14:00 -6°C° 0.1 mm 7 mps 746 mmHg 65%
    15:00 -7°C° 0.1 mm 7 mps 747 mmHg 60%
    16:00 -8°C° 0 mm 7 mps 748 mmHg 62%
    17:00 -8°C° 0 mm 6 mps 749 mmHg 63%
    18:00 -9°C° 0 mm 6 mps 750 mmHg 65%
    19:00 -8°C° 0 mm 5 mps 750 mmHg 66%
    20:00 -10°C° 0 mm 5 mps 751 mmHg 66%
    21:00 -10°C° 0 mm 5 mps 751 mmHg 67%
    22:00 -10°C° 0 mm 5 mps 752 mmHg 70%
    23:00 -10°C° 0 mm 5 mps 752 mmHg 73%

    23 November, Friday

    Time Temperature Precipitation Wind Pressure Humidity
    00:00 -10°C° 0 mm 5 mps 752 mmHg 77%
    01:00 -10°C° 0 mm 5 mps 752 mmHg 78%
    02:00 -10°C° 0 mm 5 mps 753 mmHg 79%
    03:00 -10°C° 0 mm 5 mps 753 mmHg 79%
    04:00 -10°C° 0 mm 5 mps 753 mmHg 80%
    05:00 -10°C° 0 mm 5 mps 754 mmHg 81%
    06:00 -10°C° 0 mm 5 mps 754 mmHg 82%
    07:00 -9°C° 0 mm 4 mps 754 mmHg 83%
    08:00 -9°C° 0 mm 4 mps 755 mmHg 83%
    09:00 -9°C° 0 mm 4 mps 755 mmHg 84%
    10:00 -8°C° 0 mm 5 mps 755 mmHg 82%
    11:00 -8°C° 0 mm 5 mps 755 mmHg 81%
    12:00 -7°C° 0 mm 5 mps 755 mmHg 79%
    13:00 -7°C° 0 mm 5 mps 755 mmHg 79%
    14:00 -7°C° 0 mm 4 mps 755 mmHg 79%
    15:00 -7°C° 0 mm 4 mps 755 mmHg 79%
    16:00 -7°C° 0 mm 4 mps 755 mmHg 80%
    17:00 -8°C° 0 mm 4 mps 755 mmHg 82%
    18:00 -8°C° 0 mm 4 mps 754 mmHg 84%
    19:00 -7°C° 0 mm 4 mps 754 mmHg 85%
    20:00 -6°C° 0 mm 5 mps 753 mmHg 86%
    21:00 -5°C° 0 mm 5 mps 753 mmHg 87%
    22:00 -5°C° 0 mm 5 mps 752 mmHg 86%
    23:00 -5°C° 0 mm 6 mps 752 mmHg 86%
    Show more